DW8587 Weather Reports


time (UTC)temp
C
wind
direction
speed
KPH
gust
KPH
rain 1hr
cm
rain 24hr
cm
rain mn
cm
humidity
%
barometer
mb
20260905060021 21 45 0.0 0.0 0.00 0.00 0.00 78 1015.3
20260905054523 20 45 0.0 3.2 0.00 0.00 0.00 82 1015.2
20260905053010 19 29 4.8 8.0 0.00 0.00 0.00 83 1015.2
20260905051515 19 344 1.6 4.8 0.00 0.00 0.00 83 1015.0
20260905050006 19 48 1.6 4.8 0.00 0.00 0.00 83 1014.8
20260905044503 19 48 1.6 3.2 0.00 0.00 0.00 82 1014.8
20260905043002 19 48 0.0 6.4 0.00 0.00 0.00 82 1014.5
20260905041501 20 40 3.2 6.4 0.00 0.00 0.00 81 1014.5
20260905040001 20 22 4.8 9.7 0.00 0.00 0.00 80 1014.6
20260905034608 20 44 3.2 8.0 0.00 0.00 0.00 80 1014.5
20260905033058 20 41 6.4 9.7 0.00 0.00 0.00 80 1014.7
20260905031557 20 55 4.8 8.0 0.00 0.00 0.00 80 1014.8
20260905030116 20 26 3.2 8.0 0.00 0.00 0.00 80 1014.9
20260905024557 20 41 1.6 6.4 0.00 0.00 0.00 80 1015.0
20260905023055 20 42 1.6 4.8 0.00 0.00 0.00 80 1014.9
20260905021553 20 42 0.0 4.8 0.00 0.00 0.00 79 1014.8
20260905020052 20 42 0.0 3.2 0.00 0.00 0.00 79 1015.0
20260905014556 20 31 0.0 4.8 0.00 0.00 0.00 78 1015.0
20260905013052 20 5 3.2 8.0 0.00 0.00 0.00 78 1015.0
20260905011551 20 38 1.6 4.8 0.00 0.00 0.00 77 1015.0
20260905010047 20 38 4.8 6.4 0.00 0.00 0.00 76 1015.2
20260905004547 20 32 4.8 8.0 0.00 0.00 0.00 74 1015.1
20260905003044 20 34 3.2 8.0 0.00 0.00 0.00 74 1015.3
20260905001543 20 40 4.8 6.4 0.00 0.00 0.00 73 1015.4
20260905000042 20 40 4.8 8.0 0.00 0.00 0.00 73 1015.5
20260904234545 20 44 4.8 8.0 0.00 0.00 0.00 72 1015.6
20260904233037 20 45 3.2 8.0 0.00 0.00 0.00 72 1015.6
20260904231536 21 344 1.6 4.8 0.00 0.00 0.00 72 1015.6
20260904230035 21 340 3.2 8.0 0.00 0.00 0.00 72 1015.6
20260904224533 21 43 1.6 4.8 0.00 0.00 0.00 72 1015.8
20260904223043 21 44 4.8 9.7 0.00 0.00 0.00 72 1015.8
20260904221543 21 48 3.2 6.4 0.00 0.00 0.00 72 1015.6
20260904220026 21 49 3.2 6.4 0.00 0.00 0.00 72 1015.8
20260904214524 22 355 3.2 6.4 0.00 0.00 0.00 74 1015.8
20260904213024 22 44 3.2 8.0 0.00 0.00 0.00 73 1015.9
20260904211530 22 17 3.2 4.8 0.00 0.00 0.00 72 1016.0
20260904210023 23 42 1.6 6.4 0.00 0.00 0.00 72 1016.2
20260904204527 23 42 1.6 3.2 0.00 0.00 0.00 70 1016.2
20260904203030 23 44 0.0 4.8 0.00 0.00 0.00 71 1016.3
20260904201529 23 44 1.6 4.8 0.00 0.00 0.00 72 1016.4
20260904200022 25 56 1.6 4.8 0.00 0.00 0.00 70 1016.2
20260904194548 25 81 3.2 4.8 0.00 0.00 0.00 69 1016.1
20260904193034 25 179 1.6 3.2 0.00 0.00 0.00 70 1016.0
20260904191520 25 179 0.0 1.6 0.00 0.00 0.00 69 1015.9
20260904190019 26 35 1.6 4.8 0.00 0.00 0.00 69 1015.7
20260904184519 26 35 3.2 4.8 0.00 0.00 0.00 66 1015.6
20260904183019 27 32 3.2 4.8 0.00 0.00 0.00 64 1015.4
20260904181518 28 252 0.0 1.6 0.00 0.00 0.00 58 1015.3
20260904180019 29 252 0.0 1.6 0.00 0.00 0.00 56 1015.3
20260904174517 30 252 0.0 1.6 0.00 0.00 0.00 55 1015.2
20260904173022 30 252 0.0 3.2 0.00 0.00 0.00 51 1015.1
20260904171524 31 252 0.0 1.6 0.00 0.00 0.00 50 1015.0
20260904170013 31 306 1.6 4.8 0.00 0.00 0.00 49 1015.2
20260904164513 31 312 0.0 4.8 0.00 0.00 0.00 47 1015.2
20260904163011 32 333 1.6 8.0 0.00 0.00 0.00 45 1015.3
20260904161510 32 148 1.6 4.8 0.00 0.00 0.00 43 1015.3
20260904160010 32 172 1.6 4.8 0.00 0.00 0.00 41 1015.4
20260904154507 32 208 6.4 16.1 0.00 0.00 0.00 43 1015.5
20260904153020 32 170 6.4 14.5 0.00 0.00 0.00 45 1015.6
20260904151505 32 271 4.8 14.5 0.00 0.00 0.00 45 1015.7
20260904150004 33 188 4.8 9.7 0.00 0.00 0.00 43 1015.8
20260904144503 33 300 6.4 11.3 0.00 0.00 0.00 43 1015.9
20260904143101 33 319 3.2 12.9 0.00 0.00 0.00 43 1015.9
20260904141622 32 272 4.8 14.5 0.00 0.00 0.00 46 1016.1
20260904140107 32 178 3.2 14.5 0.00 0.00 0.00 45 1016.0
20260904134558 31 219 6.4 14.5 0.00 0.00 0.00 47 1016.3
20260904133108 31 5 3.2 16.1 0.00 0.00 0.00 47 1016.3
20260904131608 32 222 4.8 17.7 0.00 0.00 0.00 47 1016.4
20260904130051 31 169 4.8 11.3 0.00 0.00 0.00 47 1016.6
20260904124547 31 140 4.8 14.5 0.00 0.00 0.00 49 1016.8
20260904123045 31 163 3.2 8.0 0.00 0.00 0.00 48 1016.9
20260904121544 31 231 6.4 9.7 0.00 0.00 0.00 48 1017.1
20260904120045 31 208 3.2 6.4 0.00 0.00 0.00 49 1017.2
20260904114538 31 161 4.8 12.9 0.00 0.00 0.00 48 1017.2
20260904113039 30 111 3.2 12.9 0.00 0.00 0.00 48 1017.4
20260904111535 30 146 3.2 9.7 0.00 0.00 0.00 50 1017.5
20260904110033 30 267 4.8 11.3 0.00 0.00 0.00 50 1017.6
20260904104531 29 221 4.8 11.3 0.00 0.00 0.00 50 1017.8
20260904103028 29 13 1.6 11.3 0.00 0.00 0.00 49 1017.9
20260904101526 29 151 1.6 6.4 0.00 0.00 0.00 50 1018.1
20260904100022 28 116 4.8 11.3 0.00 0.00 0.00 50 1018.3
20260904094548 28 57 1.6 9.7 0.00 0.00 0.00 51 1018.4
20260904084534 27 110 3.2 8.0 0.00 0.00 0.00 53 1018.6
20260904083029 27 138 3.2 8.0 0.00 0.00 0.00 53 1018.5
20260904081525 28 148 1.6 6.4 0.00 0.00 0.00 51 1018.4
20260904080030 27 177 1.6 4.8 0.00 0.00 0.00 53 1018.5
20260904074526 27 19 0.0 3.2 0.00 0.00 0.00 55 1018.5
20260904073014 26 346 0.0 3.2 0.00 0.00 0.00 60 1018.5
20260904071508 25 346 1.6 4.8 0.00 0.00 0.00 63 1018.3
20260904070004 24 46 1.6 8.0 0.00 0.00 0.00 66 1018.2
20260904064619 23 355 1.6 4.8 0.00 0.00 0.00 68 1018.3
20260904063055 22 41 3.2 6.4 0.00 0.00 0.00 70 1018.2
20260904061552 21 42 3.2 6.4 0.00 0.00 0.00 73 1018.1